• In Czech Republic
  • List of Countries
  • For 7 days
  • Water Temperature
  • Satellite Maps
  • Weather Map
  • Weather Widgets
  • user-avatar
    Login

    Hourly Weather Maksimkovo

    Today, 22 September, Saturday

    Time Temperature Precipitation Wind Pressure Humidity
    00:00 +17°C° 0 mm 3 mps 738 mmHg 94%
    01:00 +16°C° 0 mm 3 mps 738 mmHg 94%
    02:00 +16°C° 0 mm 3 mps 737 mmHg 93%
    03:00 +16°C° 0 mm 3 mps 737 mmHg 91%
    04:00 +16°C° 0 mm 3 mps 737 mmHg 89%
    05:00 +15°C° 0 mm 4 mps 736 mmHg 87%
    06:00 +17°C° 0 mm 4 mps 736 mmHg 80%
    07:00 +17°C° 0 mm 5 mps 735 mmHg 74%
    08:00 +19°C° 0 mm 5 mps 735 mmHg 68%
    09:00 +20°C° 0 mm 6 mps 735 mmHg 61%
    10:00 +22°C° 0 mm 6 mps 735 mmHg 55%
    11:00 +23°C° 0 mm 6 mps 734 mmHg 48%
    12:00 +23°C° 0 mm 6 mps 734 mmHg 48%
    13:00 +23°C° 0 mm 6 mps 734 mmHg 47%
    14:00 +24°C° 0 mm 6 mps 734 mmHg 47%
    15:00 +22°C° 0.1 mm 5 mps 734 mmHg 56%
    16:00 +20°C° 0.1 mm 4 mps 734 mmHg 65%
    17:00 +18°C° 0.1 mm 4 mps 734 mmHg 74%
    18:00 +16°C° 0.2 mm 3 mps 734 mmHg 77%
    19:00 +13°C° 0.2 mm 3 mps 734 mmHg 80%
    20:00 +12°C° 0.2 mm 2 mps 734 mmHg 83%
    21:00 +12°C° 0.1 mm 2 mps 734 mmHg 84%
    22:00 +10°C° 0.1 mm 2 mps 734 mmHg 86%
    23:00 +10°C° 0.1 mm 2 mps 734 mmHg 87%

    Tomorrow, 23 September, Sunday

    Time Temperature Precipitation Wind Pressure Humidity
    00:00 +10°C° 0.5 mm 2 mps 734 mmHg 89%
    01:00 +9°C° 0.5 mm 2 mps 734 mmHg 91%
    02:00 +9°C° 0.5 mm 3 mps 734 mmHg 93%
    03:00 +9°C° 0.5 mm 3 mps 734 mmHg 94%
    04:00 +9°C° 0.5 mm 2 mps 733 mmHg 94%
    05:00 +9°C° 0.5 mm 2 mps 733 mmHg 95%
    06:00 +9°C° 0.2 mm 3 mps 733 mmHg 94%
    07:00 +9°C° 0.2 mm 3 mps 733 mmHg 93%
    08:00 +10°C° 0.2 mm 3 mps 733 mmHg 91%
    09:00 +11°C° 0 mm 3 mps 733 mmHg 85%
    10:00 +12°C° 0 mm 4 mps 733 mmHg 78%
    11:00 +13°C° 0 mm 4 mps 733 mmHg 71%
    12:00 +13°C° 0.2 mm 4 mps 732 mmHg 69%
    13:00 +13°C° 0.2 mm 4 mps 732 mmHg 66%
    14:00 +13°C° 0.2 mm 4 mps 732 mmHg 64%
    15:00 +13°C° 0.1 mm 4 mps 732 mmHg 67%
    16:00 +12°C° 0.1 mm 3 mps 732 mmHg 71%
    17:00 +12°C° 0.1 mm 2 mps 732 mmHg 75%
    18:00 +10°C° 0.1 mm 2 mps 732 mmHg 79%
    19:00 +9°C° 0.1 mm 3 mps 732 mmHg 82%
    20:00 +8°C° 0.1 mm 3 mps 732 mmHg 86%
    21:00 +8°C° 0 mm 3 mps 732 mmHg 88%
    22:00 +7°C° 0 mm 3 mps 732 mmHg 90%
    23:00 +7°C° 0 mm 3 mps 732 mmHg 92%

    Day after tomorrow, 24 September, Monday

    Time Temperature Precipitation Wind Pressure Humidity
    00:00 +7°C° 0 mm 3 mps 732 mmHg 93%
    01:00 +7°C° 0 mm 3 mps 732 mmHg 94%
    02:00 +5°C° 0 mm 3 mps 732 mmHg 95%
    03:00 +5°C° 0 mm 3 mps 732 mmHg 95%
    04:00 +5°C° 0 mm 3 mps 732 mmHg 94%
    05:00 +5°C° 0 mm 3 mps 732 mmHg 94%
    06:00 +7°C° 0 mm 3 mps 731 mmHg 91%
    07:00 +7°C° 0 mm 2 mps 731 mmHg 88%
    08:00 +8°C° 0 mm 2 mps 731 mmHg 85%
    09:00 +9°C° 0 mm 2 mps 731 mmHg 79%
    10:00 +10°C° 0 mm 2 mps 731 mmHg 73%
    11:00 +13°C° 0 mm 2 mps 731 mmHg 67%
    12:00 +12°C° 0.2 mm 2 mps 730 mmHg 70%
    13:00 +11°C° 0.2 mm 3 mps 729 mmHg 73%
    14:00 +11°C° 0.2 mm 3 mps 728 mmHg 76%
    15:00 +10°C° 1.5 mm 3 mps 728 mmHg 81%
    16:00 +8°C° 1.5 mm 4 mps 727 mmHg 87%
    17:00 +7°C° 1.5 mm 5 mps 726 mmHg 92%
    18:00 +7°C° 1.6 mm 5 mps 725 mmHg 92%
    19:00 +7°C° 1.6 mm 5 mps 724 mmHg 92%
    20:00 +7°C° 1.6 mm 6 mps 723 mmHg 92%
    21:00 +5°C° 2.2 mm 6 mps 722 mmHg 92%
    22:00 +5°C° 2.2 mm 6 mps 721 mmHg 92%
    23:00 +5°C° 2.2 mm 7 mps 720 mmHg 92%

    25 September, Tuesday

    Time Temperature Precipitation Wind Pressure Humidity
    00:00 +5°C° 2.3 mm 7 mps 719 mmHg 92%
    01:00 +5°C° 2.3 mm 7 mps 719 mmHg 91%
    02:00 +5°C° 2.3 mm 8 mps 719 mmHg 91%
    03:00 +5°C° 1.1 mm 8 mps 719 mmHg 91%
    04:00 +5°C° 1.1 mm 8 mps 720 mmHg 90%
    05:00 +5°C° 1.1 mm 8 mps 720 mmHg 89%
    06:00 +4°C° 0.8 mm 8 mps 721 mmHg 89%
    07:00 +4°C° 0.8 mm 8 mps 722 mmHg 88%
    08:00 +4°C° 0.8 mm 8 mps 723 mmHg 87%
    09:00 +4°C° 0.3 mm 8 mps 724 mmHg 85%
    10:00 +4°C° 0.3 mm 8 mps 725 mmHg 83%
    11:00 +4°C° 0.3 mm 8 mps 726 mmHg 81%
    12:00 +4°C° 0.1 mm 8 mps 726 mmHg 78%
    13:00 +5°C° 0.1 mm 8 mps 727 mmHg 75%
    14:00 +5°C° 0.1 mm 7 mps 728 mmHg 72%
    15:00 +5°C° 0 mm 7 mps 729 mmHg 69%
    16:00 +4°C° 0 mm 6 mps 729 mmHg 65%
    17:00 +5°C° 0 mm 5 mps 730 mmHg 61%
    18:00 +5°C° 0 mm 5 mps 730 mmHg 63%
    19:00 +3°C° 0 mm 5 mps 731 mmHg 64%
    20:00 +2°C° 0 mm 5 mps 731 mmHg 66%
    21:00 +3°C° 0 mm 4 mps 731 mmHg 68%
    22:00 +1°C° 0 mm 4 mps 732 mmHg 69%
    23:00 +1°C° 0 mm 4 mps 732 mmHg 71%

    26 September, Wednesday

    Time Temperature Precipitation Wind Pressure Humidity
    00:00 0°C° 0 mm 4 mps 732 mmHg 73%
    01:00 0°C° 0 mm 4 mps 733 mmHg 74%
    02:00 0°C° 0 mm 4 mps 733 mmHg 76%
    03:00 -1°C° 0 mm 4 mps 733 mmHg 77%
    04:00 -1°C° 0 mm 4 mps 734 mmHg 77%
    05:00 -1°C° 0 mm 4 mps 734 mmHg 78%
    06:00 0°C° 0 mm 4 mps 735 mmHg 75%
    07:00 +1°C° 0 mm 4 mps 735 mmHg 71%
    08:00 +3°C° 0 mm 4 mps 736 mmHg 68%
    09:00 +4°C° 0 mm 4 mps 736 mmHg 63%
    10:00 +5°C° 0 mm 4 mps 737 mmHg 58%
    11:00 +6°C° 0 mm 4 mps 737 mmHg 53%
    12:00 +6°C° 0 mm 4 mps 738 mmHg 51%
    13:00 +6°C° 0 mm 4 mps 738 mmHg 49%
    14:00 +7°C° 0 mm 4 mps 739 mmHg 48%
    15:00 +6°C° 0 mm 4 mps 739 mmHg 52%
    16:00 +5°C° 0 mm 3 mps 740 mmHg 57%
    17:00 +5°C° 0 mm 2 mps 740 mmHg 61%
    18:00 +4°C° 0 mm 2 mps 740 mmHg 65%
    19:00 +3°C° 0 mm 2 mps 741 mmHg 70%
    20:00 +2°C° 0 mm 2 mps 741 mmHg 74%
    21:00 +2°C° 0 mm 2 mps 741 mmHg 77%
    22:00 +2°C° 0 mm 2 mps 741 mmHg 80%
    23:00 +2°C° 0 mm 2 mps 741 mmHg 82%

    27 September, Thursday

    Time Temperature Precipitation Wind Pressure Humidity
    00:00 +2°C° 0 mm 2 mps 741 mmHg 82%
    01:00 +1°C° 0 mm 3 mps 740 mmHg 81%
    02:00 +1°C° 0 mm 3 mps 740 mmHg 80%
    03:00 +1°C° 0 mm 4 mps 739 mmHg 79%
    04:00 +1°C° 0 mm 4 mps 739 mmHg 78%
    05:00 +2°C° 0 mm 5 mps 738 mmHg 77%
    06:00 +2°C° 0.3 mm 5 mps 737 mmHg 79%
    07:00 +3°C° 0.3 mm 6 mps 736 mmHg 81%
    08:00 +4°C° 0.3 mm 6 mps 735 mmHg 83%
    09:00 +4°C° 1.2 mm 7 mps 735 mmHg 85%
    10:00 +4°C° 1.2 mm 7 mps 734 mmHg 88%
    11:00 +4°C° 1.2 mm 7 mps 733 mmHg 90%
    12:00 +5°C° 1.2 mm 7 mps 732 mmHg 90%
    13:00 +5°C° 1.2 mm 8 mps 731 mmHg 90%
    14:00 +6°C° 1.2 mm 8 mps 731 mmHg 90%
    15:00 +6°C° 0.7 mm 8 mps 730 mmHg 90%
    16:00 +8°C° 0.7 mm 7 mps 730 mmHg 91%
    17:00 +8°C° 0.7 mm 7 mps 729 mmHg 91%
    18:00 +8°C° 0.3 mm 7 mps 729 mmHg 91%
    19:00 +8°C° 0.3 mm 7 mps 729 mmHg 91%
    20:00 +8°C° 0.3 mm 7 mps 729 mmHg 91%
    21:00 +9°C° 0.2 mm 7 mps 729 mmHg 91%
    22:00 +9°C° 0.2 mm 7 mps 728 mmHg 91%
    23:00 +9°C° 0.2 mm 6 mps 728 mmHg 91%
    Show more